[keps] orb12257.amsat
Ray Hoad
ray.hoad at mypbmail.com
Thu Sep 13 19:14:54 PDT 2012
SB KEPS @ AMSAT $ORB12257.O
Orbital Elements 12257.OSCAR
HR AMSAT ORBITAL ELEMENTS FOR OSCAR SATELLITES
FROM WA5QGD FORT WORTH,TX September 13, 2012
Send SUBSCRIBE KEPS/UNSUBSCRIBE KEPS to majordomo at amsat.org only
BID: ORB12257.O
TO ALL RADIO AMATEURS BT
Satellite: AO-07
Catalog number: 07530
Epoch time: 12256.61218065
Element set: 479
Inclination: 101.4099 deg
RA of node: 250.4681 deg
Eccentricity: 0.0012001
Arg of perigee: 109.6272 deg
Mean anomaly: 250.6089 deg
Mean motion: 12.53591141 rev/day
Decay rate: -2.7e-07 rev/day^2
Epoch rev: 73100
Checksum: 262
Satellite: FO-29
Catalog number: 24278
Epoch time: 12257.77753750
Element set: 933
Inclination: 098.5869 deg
RA of node: 346.8525 deg
Eccentricity: 0.0350746
Arg of perigee: 159.8737 deg
Mean anomaly: 201.6626 deg
Mean motion: 13.52988495 rev/day
Decay rate: -2.4e-07 rev/day^2
Epoch rev: 79393
Checksum: 376
Satellite: SO-33
Catalog number: 25509
Epoch time: 12256.25697024
Element set: 0322
Inclination: 031.4340 deg
RA of node: 200.9388 deg
Eccentricity: 0.0352710
Arg of perigee: 245.1762 deg
Mean anomaly: 111.1807 deg
Mean motion: 14.28811000 rev/day
Decay rate: 6.7e-07 rev/day^2
Epoch rev: 72511
Checksum: 259
Satellite: RS-22
Catalog number: 27939
Epoch time: 12257.77523525
Element set: 720
Inclination: 097.8068 deg
RA of node: 094.0292 deg
Eccentricity: 0.0013316
Arg of perigee: 349.4917 deg
Mean anomaly: 010.6014 deg
Mean motion: 14.64126617 rev/day
Decay rate: 4.34e-06 rev/day^2
Epoch rev: 47884
Checksum: 313
Satellite: VO-52
Catalog number: 28650
Epoch time: 12256.62998154
Element set: 0206
Inclination: 097.5923 deg
RA of node: 283.2924 deg
Eccentricity: 0.0027373
Arg of perigee: 112.3048 deg
Mean anomaly: 248.1060 deg
Mean motion: 14.83164870 rev/day
Decay rate: 7.65e-06 rev/day^2
Epoch rev: 39793
Checksum: 324
Satellite: HO-68
Catalog number: 36122
Epoch time: 12257.68798889
Element set: 825
Inclination: 100.3514 deg
RA of node: 315.2139 deg
Eccentricity: 0.0007045
Arg of perigee: 267.5177 deg
Mean anomaly: 092.5125 deg
Mean motion: 13.16297849 rev/day
Decay rate: -4.4e-07 rev/day^2
Epoch rev: 13203
Checksum: 315
/EX
SB KEPS @ AMSAT $ORB12257.D
Orbital Elements 12257.MICROS
HR AMSAT ORBITAL ELEMENTS FOR THE MICROSATS
FROM WA5QGD FORT WORTH,TX September 13, 2012
Send SUBSCRIBE KEPS/UNSUBSCRIBE KEPS to majordomo at amsat.org only
BID: ORB12257.D
TO ALL RADIO AMATEURS BT
Satellite: UO-11
Catalog number: 14781
Epoch time: 12257.79308521
Element set: 974
Inclination: 097.9459 deg
RA of node: 316.4977 deg
Eccentricity: 0.0010107
Arg of perigee: 103.2844 deg
Mean anomaly: 256.9492 deg
Mean motion: 14.80554805 rev/day
Decay rate: 3.02e-06 rev/day^2
Epoch rev: 53304
Checksum: 313
Satellite: AO-16
Catalog number: 20439
Epoch time: 12257.82118714
Element set: 557
Inclination: 098.4361 deg
RA of node: 198.7400 deg
Eccentricity: 0.0009958
Arg of perigee: 258.0110 deg
Mean anomaly: 101.9955 deg
Mean motion: 14.32083533 rev/day
Decay rate: 1.63e-06 rev/day^2
Epoch rev: 18268
Checksum: 306
Satellite: LO-19
Catalog number: 20442
Epoch time: 12257.83078848
Element set: 487
Inclination: 098.4037 deg
RA of node: 201.4498 deg
Eccentricity: 0.0011019
Arg of perigee: 247.8629 deg
Mean anomaly: 112.1388 deg
Mean motion: 14.32299193 rev/day
Decay rate: 3.9e-07 rev/day^2
Epoch rev: 18287
Checksum: 329
Satellite: AO-27
Catalog number: 22825
Epoch time: 12256.88058230
Element set: 0207
Inclination: 098.5803 deg
RA of node: 198.3563 deg
Eccentricity: 0.0008966
Arg of perigee: 026.9075 deg
Mean anomaly: 333.2562 deg
Mean motion: 14.29485131 rev/day
Decay rate: 1.39e-06 rev/day^2
Epoch rev: 98900
Checksum: 324
Satellite: IO-26
Catalog number: 22826
Epoch time: 12256.86461518
Element set: 0961
Inclination: 098.5757 deg
RA of node: 198.6894 deg
Eccentricity: 0.0009556
Arg of perigee: 020.7233 deg
Mean anomaly: 339.4331 deg
Mean motion: 14.29761305 rev/day
Decay rate: 1.83e-06 rev/day^2
Epoch rev: 98913
Checksum: 343
Satellite: GO-32
Catalog number: 25397
Epoch time: 12257.83513956
Element set: 873
Inclination: 098.3715 deg
RA of node: 232.2259 deg
Eccentricity: 0.0002089
Arg of perigee: 045.2106 deg
Mean anomaly: 314.9270 deg
Mean motion: 14.23292676 rev/day
Decay rate: 1.65e-06 rev/day^2
Epoch rev: 73663
Checksum: 316
Satellite: NO-44
Catalog number: 26931
Epoch time: 12257.59765094
Element set: 135
Inclination: 067.0497 deg
RA of node: 252.4727 deg
Eccentricity: 0.0006613
Arg of perigee: 253.8475 deg
Mean anomaly: 106.1893 deg
Mean motion: 14.29827925 rev/day
Decay rate: -1.14e-06 rev/day^2
Epoch rev: 57188
Checksum: 335
Satellite: SO-50
Catalog number: 27607
Epoch time: 12257.80261858
Element set: 863
Inclination: 064.5586 deg
RA of node: 025.3098 deg
Eccentricity: 0.0077443
Arg of perigee: 230.8660 deg
Mean anomaly: 128.5531 deg
Mean motion: 14.72506215 rev/day
Decay rate: 6.87e-06 rev/day^2
Epoch rev: 52301
Checksum: 310
Satellite: CO-55
Catalog number: 27844
Epoch time: 12256.51208996
Element set: 0462
Inclination: 098.7060 deg
RA of node: 263.6304 deg
Eccentricity: 0.0009624
Arg of perigee: 337.3709 deg
Mean anomaly: 022.7033 deg
Mean motion: 14.21070443 rev/day
Decay rate: 3.00e-06 rev/day^2
Epoch rev: 47729
Checksum: 295
Satellite: CO-57
Catalog number: 27848
Epoch time: 12256.53116840
Element set: 0412
Inclination: 098.7129 deg
RA of node: 263.0213 deg
Eccentricity: 0.0009503
Arg of perigee: 342.2648 deg
Mean anomaly: 017.8180 deg
Mean motion: 14.20816158 rev/day
Decay rate: 2.57e-06 rev/day^2
Epoch rev: 47723
Checksum: 299
Satellite: AO-51
Catalog number: 28375
Epoch time: 12257.89179708
Element set: 364
Inclination: 098.1576 deg
RA of node: 219.0906 deg
Eccentricity: 0.0083790
Arg of perigee: 131.6239 deg
Mean anomaly: 229.2185 deg
Mean motion: 14.40984362 rev/day
Decay rate: 1.46e-06 rev/day^2
Epoch rev: 43154
Checksum: 333
Satellite: CP3
Catalog number: 31129
Epoch time: 12257.56404650
Element set: 262
Inclination: 097.8828 deg
RA of node: 260.1533 deg
Eccentricity: 0.0100262
Arg of perigee: 207.5873 deg
Mean anomaly: 151.9984 deg
Mean motion: 14.53203640 rev/day
Decay rate: 7.51e-06 rev/day^2
Epoch rev: 28681
Checksum: 293
Satellite: CO-65
Catalog number: 32785
Epoch time: 12256.81858655
Element set: 413
Inclination: 097.7891 deg
RA of node: 315.7636 deg
Eccentricity: 0.0015750
Arg of perigee: 132.3688 deg
Mean anomaly: 227.8772 deg
Mean motion: 14.83180062 rev/day
Decay rate: 1.129e-05 rev/day^2
Epoch rev: 23675
Checksum: 340
Satellite: PRISM
Catalog number: 33493
Epoch time: 12257.78611450
Element set: 67
Inclination: 098.1832 deg
RA of node: 040.5464 deg
Eccentricity: 0.0018945
Arg of perigee: 013.4631 deg
Mean anomaly: 346.7072 deg
Mean motion: 14.84313438 rev/day
Decay rate: 2.955e-05 rev/day^2
Epoch rev: 19689
Checksum: 313
Satellite: SOHLA-1
Catalog number: 33496
Epoch time: 12256.91206372
Element set: 0852
Inclination: 098.1116 deg
RA of node: 008.1043 deg
Eccentricity: 0.0007389
Arg of perigee: 116.3123 deg
Mean anomaly: 243.8837 deg
Mean motion: 14.70040256 rev/day
Decay rate: 3.16e-06 rev/day^2
Epoch rev: 19513
Checksum: 276
Satellite: SO-67
Catalog number: 35870
Epoch time: 12257.81115994
Element set: 323
Inclination: 097.2259 deg
RA of node: 290.4431 deg
Eccentricity: 0.0001601
Arg of perigee: 162.3906 deg
Mean anomaly: 285.3348 deg
Mean motion: 15.24493761 rev/day
Decay rate: 3.910e-05 rev/day^2
Epoch rev: 16611
Checksum: 303
Satellite: TISAT-1
Catalog number: 36799
Epoch time: 12257.78312188
Element set: 342
Inclination: 098.0562 deg
RA of node: 334.7520 deg
Eccentricity: 0.0013592
Arg of perigee: 242.9105 deg
Mean anomaly: 117.0689 deg
Mean motion: 14.82235329 rev/day
Decay rate: 1.905e-05 rev/day^2
Epoch rev: 11761
Checksum: 307
Satellite: STUDSAT
Catalog number: 36801
Epoch time: 12257.83160594
Element set: 470
Inclination: 098.0640 deg
RA of node: 335.9408 deg
Eccentricity: 0.0011763
Arg of perigee: 228.6388 deg
Mean anomaly: 131.3808 deg
Mean motion: 14.85101785 rev/day
Decay rate: 5.657e-05 rev/day^2
Epoch rev: 11767
Checksum: 313
Satellite: FO-69
Catalog number: 37227
Epoch time: 12257.48491356
Element set: 0283
Inclination: 071.9693 deg
RA of node: 117.1058 deg
Eccentricity: 0.0016859
Arg of perigee: 161.4476 deg
Mean anomaly: 198.7304 deg
Mean motion: 14.77165136 rev/day
Decay rate: 5.07e-06 rev/day^2
Epoch rev: 04913
Checksum: 334
Satellite: FO-70
Catalog number: 37380
Epoch time: 12257.50537911
Element set: 0287
Inclination: 071.9726 deg
RA of node: 117.7321 deg
Eccentricity: 0.0017300
Arg of perigee: 158.0228 deg
Mean anomaly: 202.1680 deg
Mean motion: 14.76915712 rev/day
Decay rate: 4.70e-06 rev/day^2
Epoch rev: 04902
Checksum: 282
Satellite: ALMASAT-1
Catalog number: 38078
Epoch time: 12257.75916272
Element set: 561
Inclination: 069.4820 deg
RA of node: 116.2414 deg
Eccentricity: 0.0745153
Arg of perigee: 137.8145 deg
Mean anomaly: 228.2826 deg
Mean motion: 14.12084209 rev/day
Decay rate: 1.8436e-04 rev/day^2
Epoch rev: 3004
Checksum: 295
Satellite: XATCOBEO
Catalog number: 38082
Epoch time: 12257.77415227
Element set: 548
Inclination: 069.4830 deg
RA of node: 111.5895 deg
Eccentricity: 0.0706252
Arg of perigee: 135.2754 deg
Mean anomaly: 230.7583 deg
Mean motion: 14.23087041 rev/day
Decay rate: 4.5883e-04 rev/day^2
Epoch rev: 3016
Checksum: 302
/EX
SB KEPS @ AMSAT $ORB12257.W
Orbital Elements 12257.WEATHER
HR AMSAT ORBITAL ELEMENTS FOR WEATHER SATELLITES
FROM WA5QGD FORT WORTH,TX September 13, 2012
Send SUBSCRIBE KEPS/UNSUBSCRIBE KEPS to majordomo at amsat.org only
BID: ORB12257.W
TO ALL RADIO AMATEURS BT
Satellite: NOAA-10
Catalog number: 16969
Epoch time: 12256.98201832
Element set: 0066
Inclination: 098.5778 deg
RA of node: 284.4516 deg
Eccentricity: 0.0012196
Arg of perigee: 342.0928 deg
Mean anomaly: 017.9823 deg
Mean motion: 14.27575729 rev/day
Decay rate: 5.8e-07 rev/day^2
Epoch rev: 35239
Checksum: 339
